NORTHEAST SUFFOLK  -  Freeze Watch Freeze Watch        NORTHWEST SUFFOLK  -  Freeze Watch Freeze Watch        SOUTHEAST SUFFOLK  -  Freeze Watch Freeze Watch        SOUTHWEST SUFFOLK  -  Freeze Watch Freeze Watch      

Active alerts

Northwest Suffolk
  Details for Northwest Suffolk Freeze Watch
Southwest Suffolk
  Details for Southwest Suffolk Freeze Watch
Northeast Suffolk
  Details for Northeast Suffolk Freeze Watch
Southeast Suffolk
  Details for Southeast Suffolk Freeze Watch


WXM80 ListenWXM80 Stop

You find our weather info also at:

UK Metoffice

WeatherCloud

Weather Underground

Northeastern Weather Network

AWEKAS

Citizen Weather Observer Program (CWOP)

HAMweather, WeatherForYou, PWS Weather


Weather Underground History page Text

Daily Summary for December 3, 2016 Units:  English    Metric   Both
« Previous Day
Next Day »
Daily Weekly Monthly Yearly Custom
  High: Low: Average:
Temperature: 47.0 °F 41.7 °F 44.1 °F
Dew Point: 33.3 °F 30.6 °F 32.1 °F
Humidity: 70 % 55 % 63 %
Wind Speed: 11.3 mph 0.9 mph 6.7 mph
Wind Gust: 23.0 mph - -
Wind:- - WNW
Pressure: 30.12 in 29.85 in -
Precipitation: 0.00 in    
Historical Graphs
 
 
Tabular Data for December 3, 2016
Time Temperature Dew Point Pressure Wind Wind Speed Wind Gust Humidity Rainfall Rate (Hourly)
00:02 45.0 °F 33.2 °F 29.86 in WNW 6.7 mph 16.1 mph 63 % 0.00 in
00:07 45.0 °F 32.8 °F 29.85 in SW 8.5 mph 19.6 mph 62 % 0.00 in
00:12 45.1 °F 33.2 °F 29.86 in West 6.6 mph 11.5 mph 63 % 0.00 in
00:17 45.1 °F 33.2 °F 29.86 in West 5.8 mph 12.0 mph 63 % 0.00 in
00:22 45.1 °F 32.8 °F 29.86 in WSW 8.9 mph 13.8 mph 62 % 0.00 in
00:27 45.1 °F 33.2 °F 29.86 in WNW 5.6 mph 13.8 mph 63 % 0.00 in
00:32 45.2 °F 32.9 °F 29.86 in West 6.5 mph 12.0 mph 62 % 0.00 in
00:37 45.1 °F 32.8 °F 29.85 in WNW 6.9 mph 14.0 mph 62 % 0.00 in
00:42 45.1 °F 32.4 °F 29.85 in WNW 9.1 mph 17.3 mph 61 % 0.00 in
00:48 45.0 °F 32.8 °F 29.85 in NNW 8.6 mph 18.4 mph 62 % 0.00 in
00:53 45.0 °F 33.2 °F 29.85 in West 3.5 mph 9.2 mph 63 % 0.00 in
00:58 44.9 °F 32.7 °F 29.85 in WNW 4.2 mph 12.7 mph 62 % 0.00 in
01:03 44.7 °F 32.5 °F 29.85 in WSW 10.2 mph 19.6 mph 62 % 0.00 in
01:08 44.7 °F 32.9 °F 29.85 in WNW 4.4 mph 10.4 mph 63 % 0.00 in
01:13 44.6 °F 32.8 °F 29.85 in West 5.8 mph 13.0 mph 63 % 0.00 in
01:18 44.5 °F 32.7 °F 29.85 in WSW 8.7 mph 16.0 mph 63 % 0.00 in
01:23 44.5 °F 32.7 °F 29.85 in WNW 8.7 mph 11.5 mph 63 % 0.00 in
01:28 44.5 °F 32.7 °F 29.85 in WNW 6.3 mph 16.1 mph 63 % 0.00 in
01:33 44.4 °F 32.6 °F 29.85 in West 5.0 mph 12.7 mph 63 % 0.00 in
01:39 44.4 °F 32.2 °F 29.86 in WSW 6.7 mph 13.0 mph 62 % 0.00 in
01:44 44.4 °F 32.2 °F 29.86 in WNW 8.9 mph 19.6 mph 62 % 0.00 in
01:49 44.5 °F 32.7 °F 29.86 in West 2.8 mph 10.4 mph 63 % 0.00 in
01:54 44.4 °F 32.6 °F 29.86 in SW 8.0 mph 12.7 mph 63 % 0.00 in
01:59 44.4 °F 32.2 °F 29.86 in WNW 7.5 mph 18.4 mph 62 % 0.00 in
02:04 44.4 °F 33.0 °F 29.86 in West 7.7 mph 10.0 mph 64 % 0.00 in
02:09 44.3 °F 32.9 °F 29.86 in SW 9.3 mph 19.6 mph 64 % 0.00 in
02:14 44.3 °F 32.5 °F 29.86 in SW 10.6 mph 19.6 mph 63 % 0.00 in
02:19 44.3 °F 32.5 °F 29.87 in West 10.9 mph 16.1 mph 63 % 0.00 in
02:24 44.3 °F 32.9 °F 29.87 in WSW 5.9 mph 19.6 mph 64 % 0.00 in
02:30 44.2 °F 32.4 °F 29.86 in NW 8.7 mph 12.7 mph 63 % 0.00 in
02:35 44.2 °F 32.8 °F 29.86 in WNW 8.0 mph 14.0 mph 64 % 0.00 in
02:40 44.1 °F 32.7 °F 29.87 in West 7.0 mph 18.0 mph 64 % 0.00 in
02:45 44.0 °F 32.6 °F 29.87 in West 7.0 mph 21.0 mph 64 % 0.00 in
02:50 43.9 °F 32.9 °F 29.88 in West 6.0 mph 17.0 mph 65 % 0.00 in
02:55 43.8 °F 32.8 °F 29.88 in WNW 10.0 mph 20.0 mph 65 % 0.00 in
03:00 43.7 °F 32.7 °F 29.88 in West 9.2 mph 17.3 mph 65 % 0.00 in
03:05 43.6 °F 32.6 °F 29.88 in WNW 11.3 mph 19.6 mph 65 % 0.00 in
03:10 43.6 °F 33.0 °F 29.87 in SW 4.2 mph 9.2 mph 66 % 0.00 in
03:15 43.4 °F 32.8 °F 29.87 in NW 7.7 mph 11.5 mph 66 % 0.00 in
03:20 43.3 °F 32.7 °F 29.88 in WNW 9.2 mph 18.4 mph 66 % 0.00 in
03:25 43.2 °F 32.6 °F 29.87 in SW 8.3 mph 15.0 mph 66 % 0.00 in
03:30 43.0 °F 32.4 °F 29.87 in WSW 7.8 mph 18.4 mph 66 % 0.00 in
03:35 42.9 °F 32.3 °F 29.87 in West 8.4 mph 18.4 mph 66 % 0.00 in
03:41 42.9 °F 32.7 °F 29.87 in NNW 5.6 mph 8.1 mph 67 % 0.00 in
03:46 42.8 °F 32.6 °F 29.87 in WSW 6.7 mph 13.8 mph 67 % 0.00 in
03:51 42.7 °F 32.5 °F 29.88 in West 6.0 mph 13.8 mph 67 % 0.00 in
03:56 42.6 °F 32.8 °F 29.87 in West 8.7 mph 13.0 mph 68 % 0.00 in
04:01 42.6 °F 32.8 °F 29.88 in WNW 9.1 mph 12.7 mph 68 % 0.00 in
04:06 42.5 °F 32.7 °F 29.88 in NNW 5.6 mph 11.5 mph 68 % 0.00 in
04:11 42.5 °F 33.0 °F 29.88 in WNW 7.1 mph 13.8 mph 69 % 0.00 in
04:16 42.5 °F 32.7 °F 29.88 in West 9.1 mph 19.6 mph 68 % 0.00 in
04:21 42.5 °F 33.0 °F 29.88 in WNW 7.6 mph 13.8 mph 69 % 0.00 in
04:26 42.5 °F 32.7 °F 29.88 in NW 8.4 mph 18.4 mph 68 % 0.00 in
04:32 42.4 °F 32.6 °F 29.89 in West 4.8 mph 16.1 mph 68 % 0.00 in
04:37 42.4 °F 32.6 °F 29.89 in WNW 8.4 mph 19.6 mph 68 % 0.00 in
04:42 42.4 °F 32.6 °F 29.89 in NW 8.4 mph 13.8 mph 68 % 0.00 in
04:47 42.4 °F 32.6 °F 29.89 in West 5.9 mph 13.0 mph 68 % 0.00 in
04:52 42.4 °F 32.6 °F 29.89 in WNW 9.2 mph 15.0 mph 68 % 0.00 in
04:57 42.3 °F 32.5 °F 29.89 in West 6.6 mph 11.5 mph 68 % 0.00 in
05:02 42.2 °F 32.0 °F 29.89 in West 5.3 mph 10.4 mph 67 % 0.00 in
05:07 42.2 °F 32.4 °F 29.89 in WNW 5.5 mph 17.0 mph 68 % 0.00 in
05:12 42.2 °F 32.4 °F 29.89 in WSW 7.1 mph 12.0 mph 68 % 0.00 in
05:17 42.2 °F 32.4 °F 29.89 in NW 10.7 mph 19.6 mph 68 % 0.00 in
05:22 42.2 °F 32.8 °F 29.89 in WNW 4.6 mph 11.5 mph 69 % 0.00 in
05:28 42.2 °F 32.4 °F 29.89 in NW 8.9 mph 17.3 mph 68 % 0.00 in
05:33 42.2 °F 32.8 °F 29.89 in WNW 7.2 mph 11.5 mph 69 % 0.00 in
05:38 42.2 °F 32.8 °F 29.90 in West 7.0 mph 17.0 mph 69 % 0.00 in
05:43 42.2 °F 32.8 °F 29.90 in WNW 7.4 mph 16.1 mph 69 % 0.00 in
05:48 42.2 °F 32.8 °F 29.90 in WNW 7.5 mph 17.3 mph 69 % 0.00 in
05:53 42.2 °F 32.4 °F 29.90 in West 9.2 mph 12.7 mph 68 % 0.00 in
05:58 42.2 °F 32.4 °F 29.90 in WNW 8.7 mph 11.5 mph 68 % 0.00 in
06:03 42.3 °F 32.8 °F 29.91 in West 6.0 mph 10.4 mph 69 % 0.00 in
06:08 42.2 °F 32.8 °F 29.91 in West 6.9 mph 12.7 mph 69 % 0.00 in
06:13 42.2 °F 32.8 °F 29.91 in WNW 4.6 mph 10.4 mph 69 % 0.00 in
06:19 42.2 °F 32.8 °F 29.91 in WNW 7.4 mph 13.8 mph 69 % 0.00 in
06:24 42.2 °F 32.8 °F 29.92 in NW 7.7 mph 11.5 mph 69 % 0.00 in
06:29 42.2 °F 32.8 °F 29.92 in WNW 5.7 mph 15.0 mph 69 % 0.00 in
06:34 42.2 °F 32.8 °F 29.92 in NW 3.9 mph 11.5 mph 69 % 0.00 in
06:39 42.2 °F 32.8 °F 29.92 in WSW 7.7 mph 13.8 mph 69 % 0.00 in
06:44 42.2 °F 32.8 °F 29.92 in West 7.7 mph 13.8 mph 69 % 0.00 in
06:49 42.1 °F 33.0 °F 29.92 in West 6.6 mph 12.0 mph 70 % 0.00 in
06:54 42.2 °F 33.1 °F 29.93 in WNW 6.4 mph 11.5 mph 70 % 0.00 in
06:59 42.2 °F 32.8 °F 29.93 in WNW 7.6 mph 22.0 mph 69 % 0.00 in
07:04 42.2 °F 33.1 °F 29.93 in NW 8.9 mph 13.8 mph 70 % 0.00 in
07:10 42.3 °F 32.8 °F 29.93 in WNW 6.4 mph 11.5 mph 69 % 0.00 in
07:15 42.3 °F 32.8 °F 29.93 in West 6.5 mph 14.0 mph 69 % 0.00 in
07:20 42.3 °F 32.5 °F 29.93 in WNW 7.0 mph 17.0 mph 68 % 0.00 in
07:25 42.3 °F 32.8 °F 29.94 in NW 9.0 mph 20.0 mph 69 % 0.00 in
07:30 42.3 °F 32.8 °F 29.94 in WNW 6.0 mph 13.0 mph 69 % 0.00 in
07:35 42.4 °F 32.6 °F 29.94 in West 8.0 mph 20.0 mph 68 % 0.00 in
07:40 42.4 °F 32.9 °F 29.94 in West 9.7 mph 17.3 mph 69 % 0.00 in
07:45 42.4 °F 32.6 °F 29.95 in WNW 9.0 mph 20.0 mph 68 % 0.00 in
07:50 42.5 °F 32.3 °F 29.95 in WNW 9.0 mph 20.0 mph 67 % 0.00 in
07:55 42.5 °F 32.3 °F 29.95 in WNW 9.0 mph 16.0 mph 67 % 0.00 in
08:00 42.6 °F 32.4 °F 29.95 in WNW 11.2 mph 13.8 mph 67 % 0.00 in
08:05 42.7 °F 32.5 °F 29.95 in NW 7.1 mph 16.1 mph 67 % 0.00 in
08:10 42.7 °F 32.1 °F 29.95 in NNW 6.4 mph 17.3 mph 66 % 0.00 in
08:15 42.7 °F 32.5 °F 29.96 in NW 4.0 mph 12.7 mph 67 % 0.00 in
08:20 42.8 °F 32.6 °F 29.96 in West 5.1 mph 11.5 mph 67 % 0.00 in
08:25 42.9 °F 32.7 °F 29.95 in NW 8.9 mph 12.7 mph 67 % 0.00 in
08:30 43.0 °F 32.4 °F 29.96 in NW 4.8 mph 8.1 mph 66 % 0.00 in
08:35 43.1 °F 32.5 °F 29.96 in WSW 8.8 mph 11.5 mph 66 % 0.00 in
08:40 43.2 °F 32.6 °F 29.96 in WNW 2.8 mph 10.4 mph 66 % 0.00 in
08:46 43.3 °F 32.7 °F 29.96 in WNW 7.0 mph 13.8 mph 66 % 0.00 in
08:51 43.4 °F 32.4 °F 29.96 in NW 4.5 mph 10.4 mph 65 % 0.00 in
08:56 43.5 °F 32.1 °F 29.96 in NNW 7.3 mph 13.8 mph 64 % 0.00 in
09:01 43.7 °F 33.1 °F 29.97 in NW 9.7 mph 14.0 mph 66 % 0.00 in
09:06 43.8 °F 32.4 °F 29.97 in West 8.4 mph 12.7 mph 64 % 0.00 in
09:11 44.0 °F 32.6 °F 29.97 in WNW 5.7 mph 11.5 mph 64 % 0.00 in
09:16 44.2 °F 32.8 °F 29.97 in NW 9.1 mph 17.3 mph 64 % 0.00 in
09:21 44.4 °F 33.0 °F 29.97 in NNW 3.9 mph 9.0 mph 64 % 0.00 in
09:26 44.6 °F 32.8 °F 29.97 in NW 6.6 mph 15.0 mph 63 % 0.00 in
09:31 44.8 °F 32.6 °F 29.97 in NW 9.3 mph 14.0 mph 62 % 0.00 in
09:37 44.9 °F 32.3 °F 29.97 in NNW 7.0 mph 17.3 mph 61 % 0.00 in
09:42 45.0 °F 32.8 °F 29.97 in West 8.7 mph 15.0 mph 62 % 0.00 in
09:47 45.1 °F 32.8 °F 29.97 in West 6.0 mph 14.0 mph 62 % 0.00 in
09:52 45.3 °F 32.6 °F 29.97 in SW 10.6 mph 16.1 mph 61 % 0.00 in
09:57 45.5 °F 32.8 °F 29.97 in West 4.7 mph 9.2 mph 61 % 0.00 in
10:02 45.6 °F 32.9 °F 29.97 in WSW 8.5 mph 17.3 mph 61 % 0.00 in
10:07 45.7 °F 32.6 °F 29.97 in WSW 6.7 mph 11.5 mph 60 % 0.00 in
10:12 45.8 °F 33.1 °F 29.97 in WNW 8.3 mph 11.5 mph 61 % 0.00 in
10:17 45.9 °F 32.8 °F 29.97 in NW 6.5 mph 15.0 mph 60 % 0.00 in
10:22 45.9 °F 32.4 °F 29.97 in NW 9.5 mph 17.3 mph 59 % 0.00 in
10:28 45.9 °F 32.8 °F 29.97 in WNW 6.6 mph 10.0 mph 60 % 0.00 in
10:33 45.9 °F 32.8 °F 29.97 in NW 9.9 mph 16.1 mph 60 % 0.00 in
10:38 45.9 °F 32.8 °F 29.96 in NNW 5.2 mph 9.0 mph 60 % 0.00 in
10:43 46.0 °F 33.3 °F 29.97 in WNW 5.4 mph 13.8 mph 61 % 0.00 in
10:48 46.0 °F 32.9 °F 29.97 in NNW 5.4 mph 12.0 mph 60 % 0.00 in
10:53 45.9 °F 32.8 °F 29.96 in NW 5.7 mph 10.4 mph 60 % 0.00 in
10:59 45.8 °F 32.7 °F 29.97 in West 7.7 mph 13.8 mph 60 % 0.00 in
11:04 45.6 °F 31.7 °F 29.96 in NW 10.7 mph 23.0 mph 58 % 0.00 in
11:10 45.5 °F 32.4 °F 29.96 in NW 4.5 mph 14.0 mph 60 % 0.00 in
11:15 45.5 °F 32.4 °F 29.96 in NW 10.0 mph 15.0 mph 60 % 0.00 in
11:20 45.6 °F 32.9 °F 29.97 in NW 6.0 mph 20.0 mph 61 % 0.00 in
11:25 45.8 °F 31.9 °F 29.97 in WNW 8.0 mph 20.0 mph 58 % 0.00 in
11:30 45.8 °F 32.3 °F 29.97 in WNW 8.9 mph 11.5 mph 59 % 0.00 in
11:35 45.9 °F 32.3 °F 29.97 in WNW 8.0 mph 20.0 mph 59 % 0.00 in
11:40 45.8 °F 31.9 °F 29.97 in NW 8.0 mph 20.0 mph 58 % 0.00 in
11:45 45.6 °F 31.2 °F 29.97 in WNW 10.8 mph 19.6 mph 57 % 0.00 in
11:50 45.5 °F 32.0 °F 29.97 in WNW 6.0 mph 14.0 mph 59 % 0.00 in
11:55 45.6 °F 32.5 °F 29.97 in WNW 8.0 mph 18.0 mph 60 % 0.00 in
12:00 45.6 °F 32.1 °F 29.97 in West 8.3 mph 11.5 mph 59 % 0.00 in
12:05 45.7 °F 31.8 °F 29.97 in NW 10.0 mph 17.0 mph 58 % 0.00 in
12:10 45.8 °F 32.3 °F 29.96 in NNW 8.0 mph 12.7 mph 59 % 0.00 in
12:15 46.0 °F 32.0 °F 29.96 in West 7.7 mph 11.5 mph 58 % 0.00 in
12:20 46.4 °F 32.8 °F 29.96 in NW 8.7 mph 18.4 mph 59 % 0.00 in
12:25 46.6 °F 32.6 °F 29.96 in NW 10.1 mph 16.1 mph 58 % 0.00 in
12:30 46.8 °F 32.4 °F 29.96 in NW 9.6 mph 15.0 mph 57 % 0.00 in
12:35 46.9 °F 32.0 °F 29.97 in WNW 8.8 mph 17.3 mph 56 % 0.00 in
12:40 47.0 °F 32.1 °F 29.97 in WNW 8.2 mph 13.8 mph 56 % 0.00 in
12:45 47.0 °F 31.7 °F 29.97 in WSW 7.7 mph 12.7 mph 55 % 0.00 in
12:51 46.9 °F 31.6 °F 29.98 in NW 10.6 mph 18.4 mph 55 % 0.00 in
12:56 46.7 °F 31.8 °F 29.98 in WNW 9.7 mph 12.7 mph 56 % 0.00 in
13:01 46.5 °F 31.2 °F 29.98 in WNW 4.3 mph 13.8 mph 55 % 0.00 in
13:06 46.4 °F 32.0 °F 29.98 in NW 5.4 mph 15.0 mph 57 % 0.00 in
13:11 46.3 °F 31.0 °F 29.98 in WNW 6.9 mph 16.1 mph 55 % 0.00 in
13:16 46.2 °F 31.8 °F 29.97 in WNW 0.9 mph 3.5 mph 57 % 0.00 in
13:21 46.3 °F 31.4 °F 29.97 in WSW 2.6 mph 6.9 mph 56 % 0.00 in
13:26 46.3 °F 31.9 °F 29.98 in WNW 7.3 mph 11.5 mph 57 % 0.00 in
13:31 46.3 °F 31.9 °F 29.97 in WNW 6.7 mph 11.5 mph 57 % 0.00 in
13:36 46.4 °F 32.0 °F 29.97 in WNW 6.0 mph 9.2 mph 57 % 0.00 in
13:41 46.5 °F 31.6 °F 29.97 in West 8.0 mph 16.0 mph 56 % 0.00 in
13:46 46.6 °F 32.2 °F 29.97 in West 6.1 mph 11.5 mph 57 % 0.00 in
13:52 46.6 °F 32.2 °F 29.97 in WNW 6.2 mph 11.5 mph 57 % 0.00 in
13:57 46.5 °F 31.6 °F 29.97 in West 5.6 mph 11.0 mph 56 % 0.00 in
14:02 46.5 °F 32.1 °F 29.97 in WNW 6.3 mph 21.0 mph 57 % 0.00 in
14:07 46.5 °F 31.6 °F 29.97 in WNW 6.7 mph 15.0 mph 56 % 0.00 in
14:12 46.5 °F 32.5 °F 29.97 in WNW 7.8 mph 16.1 mph 58 % 0.00 in
14:17 46.5 °F 32.1 °F 29.97 in NW 8.4 mph 12.7 mph 57 % 0.00 in
14:22 46.6 °F 32.6 °F 29.97 in NNW 6.6 mph 11.5 mph 58 % 0.00 in
14:27 46.8 °F 32.4 °F 29.97 in NW 4.6 mph 15.0 mph 57 % 0.00 in
14:32 46.9 °F 32.4 °F 29.97 in West 7.0 mph 12.0 mph 57 % 0.00 in
14:37 46.9 °F 32.0 °F 29.97 in NW 10.7 mph 16.0 mph 56 % 0.00 in
14:42 46.8 °F 31.9 °F 29.97 in WNW 7.8 mph 12.7 mph 56 % 0.00 in
14:48 46.9 °F 32.9 °F 29.97 in WNW 9.4 mph 16.0 mph 58 % 0.00 in
14:53 46.8 °F 31.9 °F 29.97 in WNW 8.3 mph 12.7 mph 56 % 0.00 in
14:58 46.8 °F 31.9 °F 29.97 in WSW 6.4 mph 12.0 mph 56 % 0.00 in
15:03 46.8 °F 31.9 °F 29.97 in NW 4.3 mph 12.7 mph 56 % 0.00 in
15:08 46.7 °F 31.4 °F 29.98 in WSW 4.9 mph 11.5 mph 55 % 0.00 in
15:13 46.6 °F 31.7 °F 29.98 in West 8.0 mph 15.0 mph 56 % 0.00 in
15:18 46.6 °F 32.6 °F 29.98 in NW 8.7 mph 19.6 mph 58 % 0.00 in
15:23 46.5 °F 31.6 °F 29.99 in WNW 10.6 mph 16.1 mph 56 % 0.00 in
15:28 46.4 °F 31.1 °F 29.99 in West 8.2 mph 11.5 mph 55 % 0.00 in
15:33 46.4 °F 32.4 °F 29.99 in WNW 8.7 mph 14.0 mph 58 % 0.00 in
15:39 46.3 °F 31.9 °F 30.00 in WNW 6.6 mph 11.5 mph 57 % 0.00 in
15:44 46.3 °F 32.3 °F 30.00 in WNW 6.3 mph 10.4 mph 58 % 0.00 in
15:49 46.2 °F 31.8 °F 30.00 in WNW 3.5 mph 10.4 mph 57 % 0.00 in
15:54 46.1 °F 31.7 °F 30.01 in NNW 7.0 mph 15.0 mph 57 % 0.00 in
15:59 46.0 °F 32.0 °F 30.02 in NW 4.8 mph 9.2 mph 58 % 0.00 in
16:04 45.9 °F 31.5 °F 30.02 in West 7.3 mph 16.0 mph 57 % 0.00 in
16:09 45.9 °F 31.5 °F 30.03 in WNW 10.6 mph 18.4 mph 57 % 0.00 in
16:14 45.8 °F 31.0 °F 30.03 in WNW 6.7 mph 13.8 mph 56 % 0.00 in
16:19 45.7 °F 30.9 °F 30.03 in WNW 9.8 mph 19.6 mph 56 % 0.00 in
16:24 45.6 °F 30.8 °F 30.04 in NW 7.1 mph 16.1 mph 56 % 0.00 in
16:30 45.4 °F 30.6 °F 30.04 in NNW 9.8 mph 15.0 mph 56 % 0.00 in
16:35 45.3 °F 31.0 °F 30.04 in NW 9.3 mph 13.8 mph 57 % 0.00 in
16:40 45.2 °F 30.9 °F 30.04 in NW 7.0 mph 21.0 mph 57 % 0.00 in
16:45 45.2 °F 31.3 °F 30.05 in NW 8.0 mph 16.0 mph 58 % 0.00 in
16:50 45.1 °F 31.6 °F 30.05 in NW 6.0 mph 14.0 mph 59 % 0.00 in
16:55 45.1 °F 30.8 °F 30.05 in NW 10.0 mph 20.0 mph 57 % 0.00 in
17:00 45.0 °F 31.1 °F 30.04 in WNW 7.6 mph 15.0 mph 58 % 0.00 in
17:05 45.0 °F 31.1 °F 30.04 in NW 5.0 mph 16.0 mph 58 % 0.00 in
17:10 44.9 °F 31.4 °F 30.04 in NW 3.9 mph 9.2 mph 59 % 0.00 in
17:15 44.7 °F 31.2 °F 30.04 in NNW 6.9 mph 12.7 mph 59 % 0.00 in
17:20 44.6 °F 31.6 °F 30.04 in NNW 6.3 mph 11.5 mph 60 % 0.00 in
17:25 44.6 °F 31.6 °F 30.05 in West 6.3 mph 11.5 mph 60 % 0.00 in
17:30 44.5 °F 31.5 °F 30.05 in WNW 6.3 mph 11.5 mph 60 % 0.00 in
17:35 44.4 °F 31.8 °F 30.05 in WNW 7.1 mph 17.0 mph 61 % 0.00 in
17:40 44.4 °F 32.2 °F 30.05 in NW 5.9 mph 10.4 mph 62 % 0.00 in
17:45 44.3 °F 32.1 °F 30.05 in West 8.6 mph 16.0 mph 62 % 0.00 in
17:51 44.3 °F 31.7 °F 30.05 in West 8.0 mph 11.5 mph 61 % 0.00 in
17:56 44.2 °F 31.6 °F 30.05 in West 8.3 mph 13.0 mph 61 % 0.00 in
18:01 44.2 °F 31.6 °F 30.05 in NW 7.0 mph 11.5 mph 61 % 0.00 in
18:06 44.1 °F 31.5 °F 30.06 in NW 7.6 mph 12.0 mph 61 % 0.00 in
18:11 44.1 °F 31.9 °F 30.06 in NW 8.1 mph 17.3 mph 62 % 0.00 in
18:16 44.0 °F 31.8 °F 30.06 in NW 8.0 mph 17.3 mph 62 % 0.00 in
18:21 44.1 °F 31.9 °F 30.05 in NW 7.4 mph 13.8 mph 62 % 0.00 in
18:26 44.1 °F 32.3 °F 30.05 in NW 6.2 mph 10.4 mph 63 % 0.00 in
18:31 44.0 °F 32.2 °F 30.05 in WNW 7.4 mph 12.7 mph 63 % 0.00 in
18:36 43.9 °F 32.1 °F 30.05 in WNW 5.3 mph 10.4 mph 63 % 0.00 in
18:41 43.9 °F 32.5 °F 30.06 in NW 5.2 mph 11.5 mph 64 % 0.00 in
18:47 43.8 °F 32.4 °F 30.06 in NW 5.5 mph 12.7 mph 64 % 0.00 in
18:52 43.8 °F 32.4 °F 30.06 in WNW 8.8 mph 11.5 mph 64 % 0.00 in
18:57 43.8 °F 32.4 °F 30.06 in WNW 5.5 mph 10.0 mph 64 % 0.00 in
19:02 43.7 °F 31.9 °F 30.06 in NNW 6.9 mph 13.8 mph 63 % 0.00 in
19:07 43.7 °F 31.1 °F 30.05 in NW 5.8 mph 13.8 mph 61 % 0.00 in
19:12 43.7 °F 31.9 °F 30.06 in West 5.4 mph 11.5 mph 63 % 0.00 in
19:17 43.6 °F 31.4 °F 30.06 in WNW 4.4 mph 9.0 mph 62 % 0.00 in
19:22 43.6 °F 31.8 °F 30.06 in NNW 4.4 mph 9.2 mph 63 % 0.00 in
19:27 43.5 °F 31.3 °F 30.06 in NNW 6.2 mph 10.4 mph 62 % 0.00 in
19:32 43.5 °F 31.3 °F 30.06 in WSW 5.6 mph 11.5 mph 62 % 0.00 in
19:37 43.4 °F 31.2 °F 30.06 in NW 5.8 mph 10.4 mph 62 % 0.00 in
19:42 43.4 °F 30.8 °F 30.06 in NNW 5.4 mph 12.7 mph 61 % 0.00 in
19:48 43.4 °F 31.2 °F 30.06 in WNW 5.8 mph 12.7 mph 62 % 0.00 in
19:53 43.4 °F 31.6 °F 30.06 in NNW 6.3 mph 10.4 mph 63 % 0.00 in
19:58 43.4 °F 31.2 °F 30.06 in NW 6.5 mph 11.5 mph 62 % 0.00 in
20:03 43.3 °F 31.1 °F 30.06 in NNW 5.4 mph 10.4 mph 62 % 0.00 in
20:08 43.3 °F 31.1 °F 30.06 in NW 7.7 mph 11.5 mph 62 % 0.00 in
20:13 43.2 °F 31.1 °F 30.06 in WNW 6.3 mph 11.5 mph 62 % 0.00 in
20:18 43.1 °F 31.0 °F 30.06 in NW 4.8 mph 9.2 mph 62 % 0.00 in
20:23 43.1 °F 31.7 °F 30.07 in NW 3.3 mph 6.9 mph 64 % 0.00 in
20:28 43.1 °F 31.7 °F 30.06 in NNW 4.4 mph 9.2 mph 64 % 0.00 in
20:33 43.0 °F 30.9 °F 30.06 in WNW 3.1 mph 10.4 mph 62 % 0.00 in
20:39 42.9 °F 30.8 °F 30.06 in NW 6.7 mph 13.8 mph 62 % 0.00 in
20:44 42.8 °F 31.5 °F 30.06 in WNW 6.9 mph 9.2 mph 64 % 0.00 in
20:49 42.8 °F 31.5 °F 30.07 in WNW 3.0 mph 8.1 mph 64 % 0.00 in
20:54 42.7 °F 31.7 °F 30.07 in North 4.2 mph 9.2 mph 65 % 0.00 in
20:59 42.7 °F 31.4 °F 30.07 in NNW 4.6 mph 9.2 mph 64 % 0.00 in
21:04 42.6 °F 31.3 °F 30.06 in WNW 4.0 mph 9.2 mph 64 % 0.00 in
21:09 42.6 °F 30.9 °F 30.07 in North 5.4 mph 13.8 mph 63 % 0.00 in
21:14 42.7 °F 31.0 °F 30.07 in NNW 4.9 mph 8.1 mph 63 % 0.00 in
21:19 42.7 °F 31.0 °F 30.07 in NNW 4.1 mph 10.0 mph 63 % 0.00 in
21:24 42.7 °F 31.0 °F 30.07 in WNW 5.0 mph 9.2 mph 63 % 0.00 in
21:30 42.8 °F 31.1 °F 30.07 in WNW 2.3 mph 8.0 mph 63 % 0.00 in
21:35 42.8 °F 30.7 °F 30.08 in NNW 3.0 mph 12.0 mph 62 % 0.00 in
21:40 42.8 °F 30.7 °F 30.07 in NNW 5.0 mph 8.0 mph 62 % 0.00 in
21:45 42.9 °F 31.1 °F 30.07 in NNW 2.0 mph 8.0 mph 63 % 0.00 in
21:50 42.8 °F 31.5 °F 30.08 in North 1.0 mph 8.0 mph 64 % 0.00 in
21:55 42.8 °F 30.7 °F 30.08 in North 3.0 mph 8.0 mph 62 % 0.00 in
22:00 42.8 °F 31.1 °F 30.09 in North 3.3 mph 4.0 mph 63 % 0.00 in
22:05 42.7 °F 30.6 °F 30.09 in North 4.8 mph 6.9 mph 62 % 0.00 in
22:10 42.7 °F 30.6 °F 30.09 in North 1.8 mph 4.6 mph 62 % 0.00 in
22:15 42.7 °F 31.0 °F 30.10 in NNW 2.9 mph 5.0 mph 63 % 0.00 in
22:20 42.6 °F 31.3 °F 30.10 in North 3.4 mph 7.0 mph 64 % 0.00 in
22:25 42.6 °F 31.3 °F 30.09 in NNE 2.8 mph 3.5 mph 64 % 0.00 in
22:30 42.5 °F 30.8 °F 30.09 in North 4.9 mph 6.9 mph 63 % 0.00 in
22:35 42.5 °F 30.8 °F 30.10 in NNW 4.3 mph 6.0 mph 63 % 0.00 in
22:40 42.4 °F 31.1 °F 30.10 in NNW 3.7 mph 7.0 mph 64 % 0.00 in
22:45 42.4 °F 30.7 °F 30.11 in North 4.3 mph 5.8 mph 63 % 0.00 in
22:51 42.4 °F 31.5 °F 30.11 in NNE 3.0 mph 4.6 mph 65 % 0.00 in
22:56 42.4 °F 31.8 °F 30.11 in NNE 3.7 mph 5.8 mph 66 % 0.00 in
23:01 42.3 °F 31.7 °F 30.11 in NE 4.2 mph 6.9 mph 66 % 0.00 in
23:06 42.2 °F 31.6 °F 30.11 in North 1.8 mph 6.9 mph 66 % 0.00 in
23:11 42.2 °F 32.0 °F 30.11 in North 4.6 mph 6.9 mph 67 % 0.00 in
23:16 42.1 °F 31.6 °F 30.12 in NW 2.5 mph 5.8 mph 66 % 0.00 in
23:21 42.0 °F 31.5 °F 30.12 in NNE 5.0 mph 8.1 mph 66 % 0.00 in
23:26 42.0 °F 31.5 °F 30.11 in NE 4.5 mph 8.0 mph 66 % 0.00 in
23:31 41.9 °F 31.7 °F 30.12 in NNW 3.2 mph 4.6 mph 67 % 0.00 in
23:36 41.9 °F 31.7 °F 30.12 in NNW 2.4 mph 4.6 mph 67 % 0.00 in
23:41 41.8 °F 31.6 °F 30.12 in NNE 5.7 mph 9.2 mph 67 % 0.00 in
23:47 41.8 °F 30.9 °F 30.12 in NNW 3.6 mph 8.1 mph 65 % 0.00 in
23:52 41.8 °F 31.3 °F 30.12 in WNW 4.4 mph 8.0 mph 66 % 0.00 in
23:57 41.7 °F 31.2 °F 30.12 in NNW 2.9 mph 5.8 mph 66 % 0.00 in
Crab Meadow Weather
Compliments of Weather Underground - 3 mb

Script developed by  Jim McMurry - jmcmurry@mwt.net Adapted for the template by  Wim van der Kuil - Leuven-Template.eu

Astronomy: The light of the Sun takes 8 minutes to reach Earth.